THORAD DELTA 1 DEB, 8405

Orbit data source: Space-Track

THORAD DELTA 1 DEB, 8405 is space debris in LEO originally from a launch on Fri, 15 Nov 1974 UTC launched from the Air Force Western Test Range (AFWTR). Debris objects in space refer to the collection of defunct objects orbiting the Earth. Examples of debris include non-operational satellites, rocket bodies, and fragments generated from explosions, collisions, or faulty payload assembly.

Loading next visibility...
Identifier
8405, 1974-089CH
Orbit
LEO
Country
Flag of USUS
Related business
Manufacturer
Unknown
Mission
Spacecraft
Bus & Motor
Unknown
Mass
Unknown
Launch date (UTC)
1974-11-15 (51 years ago)
Launch vehicle
Unknown
Launch site
Air Force Western Test Range (AFWTR)
Object type
Payload
Rocket body
Debris
Shape & HBR
Unknown shape, 0.1 m
Radar Cross Section
Small (<0.1 m²)

Expand to show TLE details & history
Last TLE update: 22 hours ago

TLE from 22 hours ago
0 THORAD DELTA 1 DEB
1  8405U 74089CH  25353.26378891  .00001124  00000-0  19193-1 0  9999
2  8405 102.7285 275.4192 0691577  64.9937 302.1254 11.30473232110529
Epoch: 2025-12-19T06:19Z
TLE epoch observation values (Epoch: 2025-12-19T06:19:51.361Z)
Latitude
0.00002°
Longitude
92.34775°
Altitude
1,732.279 km
Speed
7.127 km/s
True Right ascension
18h 21m 40s
True Declination
0° 00' 00"
Sunlit
Object was in daylight at epoch
Visualization orbit readout
Latitude
Unknown
Longitude
Unknown
Altitude
Unknown
Speed
Unknown
Apparent Right ascension
Unknown
Apparent Declination
Unknown
Sunlit
N/A
Visualization observer readout
Local Sidereal Time
03:15:55
Azimuth
Unknown
Elevation
Unknown
Doppler factor
Unknown
Orbital elements
Apogee altitude
2,585.55 km
Perigee altitude
1,425.931 km
Semi-major axis
8,383.877 km
Eccentricity
0.06916
Inclination
102.7285°
RAAN
275.4192°
Arg. of periapsis
64.9937°
True anomaly
295.10886°
Mean anomaly
302.1254°
Eccentric anomaly
298.64803°
Mean motion
2.82733 °/min
Orbital period
127.33 mins
BSTAR
0.019193
Loading maneuver chart data...
Computing Atmospheric mass density...

Documentation

Showing up to 5 results
|